Location: Arrodets-la-Barthe
(43.0306°N, 0.2829°E)
Time: 12:54:06
(UTC+00:00)

COSMOS 2251 DEB - Visible Passes

Search period start: 14 May 2025 00:00
Search period end: 24 May 2025 00:00
Orbit: 556 x 660 km, 74.0° (Epoch: 13 May)

Date Brightness Start Highest point End Pass type
(mag) Time Alt. Az. Time Alt. Az. Time Alt. Az.
14 May ? 01:54:05 10° N 01:58:19 37° ENE 02:02:23 10° SE visible
14 May ? 03:33:17 10° NW 03:36:40 21° W 03:39:31 12° SW visible
15 May ? 02:07:52 10° NNW 02:12:23 68° ENE 02:15:12 21° SSE visible
15 May ? 03:48:54 10° WNW 03:50:18 11° W 03:51:42 10° WSW visible
16 May ? 00:44:39 10° NNE 00:47:10 15° NE 00:49:38 10° E visible
16 May ? 02:21:51 10° NNW 02:26:19 65° WSW 02:27:55 37° S visible
17 May ? 00:57:46 10° N 01:01:26 24° ENE 01:03:56 15° ESE visible
17 May ? 02:36:05 10° NW 02:40:08 34° WSW 02:40:49 32° WSW visible
18 May ? 01:11:18 10° N 01:15:33 41° ENE 01:16:57 31° ESE visible
18 May ? 02:50:43 10° NW 02:53:49 19° W 02:53:49 19° W visible
19 May ? 01:25:04 10° NNW 01:29:33 75° ENE 01:30:03 66° ESE visible
20 May ? 00:01:40 10° NNE 00:04:22 16° NE 00:06:20 12° E visible
20 May ? 01:39:03 10° NNW 01:43:13 57° W 01:43:13 57° W visible
21 May ? 00:14:49 10° N 00:18:33 26° ENE 00:19:33 23° E visible
21 May ? 01:53:18 10° NW 01:56:27 29° W 01:56:27 29° W visible
22 May ? 00:28:21 10° N 00:32:37 44° ENE 00:32:50 44° ENE visible
22 May ? 02:08:01 10° WNW 02:09:43 15° WNW 02:09:43 15° WNW visible
23 May ? 00:42:07 10° NNW 00:46:08 72° N 00:46:08 72° N visible
23 May ? 23:18:31 10° NNE 23:21:23 17° NE 23:22:35 15° ENE visible
